OISF  Fasa Airport

Add Bookmark

Fasa, Iran

Status IATA
Operational FAZ
Latitude Longitude
28° 53' 30" N 53° 43' 23" E
28.891800 53.723301
Local (DST + 5) UTC (GMT + 4)
Aug 21, 2014 04:51 Aug 21, 2014 00:21
Sunrise-Sunset Local UTC
Begin Civil Twilight 06:01 01:31
Sunrise 06:26 01:56
Sunset 07:30 15:00
End Civil Twilight 07:54 15:24

Current Weather

METAR Observed VFR
OISF 202250Z 00000KT CAVOK 25/05 Q1011 Wed, Aug 20, 2014 @ 22:50 UTC
(1 Hour, 31 Minutes ago)
Visual Flight Rules
Wind Visibility Clouds Conditions
Calm 10 km or more
  • Clear skies
  • No significant weather
Temperatures Readings Precipitation
Current Temp 25°C (77°F)
Dewpoint 5°C (41°F)
Humidity 28%
Altimeter 29.85"Hg
Sea Level Pressure 1011mb
Field Elevation 4537.4'
None Recorded

Additional weather within a 185.2km radius of OISF

Map ICAO Location
OISS 131.3km W (303°)
OISL 149.8km S (154°)
OISR 176.7km S (197°)
OIBJ 179.3km S (229°)

24 Hour Weather History

Loading
-

24 Hour Weather Graphs

Loading
-

CheckWX.com is intended as a tool to help pilots better visualize weather data. It is not intended as a substitute for an official weather briefing obtained from a Flight Service Station. CheckWX.com does not meet the FAA requirements for an official pre-flight weather briefing. Therefore, it's important that pilots still call and obtain an official FSS pre-flight weather briefing.